Flag for Canada

Past Weather in Dieppe, New Brunswick, Canada — Yesterday and Last 2 Weeks

Now
72 °F

Overcast.


Feels Like: 69 °F
Forecast: 75 / 68 °F
Wind: 15 mph from South

Location: Moncton
Current Time: Sep 29, 2020 at 4:41:11 am
Latest Report: Sep 29, 2020 at 3:00 am
Visibility: 15 mi
Pressure30.00 "Hg
Humidity: 88%
Dew Point: 68 °F
Location of DieppeLocation

Past Weather in Dieppe — Graph

°F

Dieppe Temperature Yesterday

Maximum temperature yesterday: 77 °F (at 12:00 pm)
Minimum temperature yesterday: 64 °F (at 6:48 am)
Average temperature yesterday: 71 °F

High & Low Weather Summary for the Past Weeks

 TemperatureHumidityPressure
High77 °F (Sep 28, 12:00 pm)100% (Sep 14, 6:00 am)30.61 "Hg (Sep 14, 6:00 am)
Low30 °F (Sep 21, 6:00 am)29% (Sep 19, 3:00 pm)29.23 "Hg (Sep 23, 7:00 am)
Average54 °F76%30.03 "Hg
* Reported Sep 14 3:00 am — Sep 29 3:00 am, Dieppe. Weather by CustomWeather, © 2020

Note: Actual official high and low records may vary slightly from our data, if they occured in-between our weather recording intervals... More about our weather records

Dieppe Weather History for the Previous 24 Hours

Scroll right to see more
 ConditionsComfort  
Time TempWeatherWind HumidityBarometerVisibility
3:00 am
Tue, Sep 29
72 °FOvercast.15 mph88%30.00 "Hg15 mi
2:00 am72 °FMostly cloudy.14 mph83%30.01 "Hg15 mi
1:00 am70 °FOvercast.12 mph88%30.01 "Hg15 mi
12:00 am70 °FOvercast.10 mph88%30.02 "Hg15 mi
11:00 pm
Mon, Sep 28
70 °FMostly cloudy.15 mph83%30.03 "Hg15 mi
10:00 pm72 °FPartly cloudy.13 mph78%30.03 "Hg15 mi
9:00 pm72 °FPassing clouds.10 mph78%30.03 "Hg15 mi
8:00 pm72 °FPassing clouds.15 mph83%30.03 "Hg15 mi
7:00 pm73 °FBroken clouds.18 mph78%30.04 "Hg15 mi
6:00 pm77 °FBroken clouds.20 mph65%30.03 "Hg15 mi
5:00 pm77 °FPartly sunny.21 mph69%30.04 "Hg15 mi
4:00 pm77 °FPartly sunny.22 mph69%30.04 "Hg15 mi
3:00 pm75 °FPartly sunny.15 mph78%30.04 "Hg15 mi
2:00 pm75 °FPartly sunny.25 mph78%30.04 "Hg15 mi
1:00 pm75 °FPartly sunny.20 mph74%30.05 "Hg15 mi
12:00 pm77 °FPartly sunny.18 mph69%30.05 "Hg15 mi
11:00 am75 °FPartly sunny.20 mph74%30.06 "Hg15 mi
10:00 am70 °FPartly sunny.3 mph88%30.06 "Hg15 mi
9:00 am66 °FPartly sunny.3 mph94%30.05 "Hg15 mi
8:04 am64 °FPartly sunny.6 mph100%30.04 "Hg15 mi
7:00 am64 °FPassing clouds.7 mph100%30.03 "Hg15 mi
6:48 am64 °FPassing clouds.7 mph100%30.03 "Hg60 mi
6:00 am66 °FPassing clouds.8 mph94%30.03 "Hg15 mi
5:00 am66 °FPassing clouds.9 mph94%30.02 "Hg15 mi
4:00 am68 °FOvercast.13 mph88%30.01 "Hg15 mi
Weather by CustomWeather, © 2020

See weather overview